Location: Copetón
(10.0045°N, 67.8273°W)
Time: 09:20:55
(UTC+00:00)

IGS 5A - Visible Passes

Search period start: 24 July 2024 00:00
Search period end: 03 August 2024 00:00
Orbit: 569 x 572 km, 97.4° (Epoch: 06 July)

Date Brightness Start Highest point End Pass type
(mag) Time Alt. Az. Time Alt. Az. Time Alt. Az.
24 Jul 6.3 23:54:09 10° SW 23:56:41 16° W 23:59:13 10° WNW visible
25 Jul 6.3 23:56:06 10° SW 23:58:28 15° W 00:00:50 10° WNW visible
26 Jul 6.3 23:58:04 10° SW 00:00:15 14° W 00:02:25 10° WNW visible
28 Jul 6.4 00:00:04 10° SW 00:02:01 13° W 00:03:59 10° WNW visible
29 Jul 6.5 00:02:04 10° SW 00:03:47 12° W 00:05:30 10° WNW visible
30 Jul 6.5 00:04:07 10° WSW 00:05:32 12° W 00:06:58 10° WNW visible
31 Jul 6.6 00:06:15 10° WSW 00:07:17 11° W 00:08:18 10° W visible
01 Aug 6.8 00:08:49 10° WSW 00:09:00 10° W 00:09:12 10° W visible
